[[{"header":{"parameterUnit":"m.s-1","parameterCategory":2,"la1":30.2991,"la2":30.254,"lo1":-89.0895,"lo2":-89.0444,"dy":0.0017,"dx":0.0017,"nx":28,"ny":28,"refTime":"2025-11-23T03:00:00:Z","depth":"0","parameterNumber":2,"parameterNumberName":"U-component_of_CURRENTS"},"data":[0,0,0,0,0,0,0,0,0,0,0,0,0,0,0,0,0,0,0,0,0,0,0,0,0,0,0,0,0,0,0,0,0,0,0,0,0,0,0,0,0,0,0,0,0,0,0,0,0,0,0,0,0,0,0,0,0,0,0.3208,0.3208,0,0.3203,0.3203,0.3202,0.3166,0.3165,0.3164,0.3164,0.3136,0.3136,0.3136,0,0,0,0,0,0,0,0,0,0,0,0,0,0.3197,0.3197,0.3208,0.3208,0.3208,0.3203,0.3203,0.3202,0.3166,0.3165,0.3164,0.3163,0.3136,0.3136,0.3136,0,0,0,0,0,0,0,0,0,0,0,0,0,0.3195,0.3197,0.3208,0.3191,0.319,0.3203,0.3203,0.3202,0.3166,0.3165,0.3164,0.3163,0.3136,0.3136,0.3136,0.3154,0,0,0.3135,0.3135,0,0,0,0,0,0,0,0,0.3195,0.3195,0.3193,0.3192,0.3191,0.3186,0.3189,0.3186,0.3166,0.3172,0.3164,0.3162,0.3153,0.3151,0.3149,0.3153,0.3152,0.3135,0.3135,0.3135,0.3135,0,0,0,0,0,0,0,0.3196,0.3196,0.3203,0.3194,0.3192,0.3188,0.3187,0.3188,0.3166,0.3171,0.3169,0.3174,0.3152,0.315,0.3148,0.3151,0.3135,0.3135,0.3135,0.3135,0.3206,0.3208,0,0,0,0,0,0,0.3202,0.3196,0.3203,0.3203,0.3194,0.319,0.3187,0.3187,0.3166,0.3163,0.3174,0.3172,0.315,0.3149,0.3147,0.3195,0.3135,0.3135,0.3135,0.3204,0.3207,0.3209,0,0,0,0,0,0,0.3202,0.3203,0.3203,0.3202,0.3202,0.3191,0.319,0.3187,0.3189,0.3169,0.3165,0.318,0.3149,0.3147,0.3161,0.3192,0.3135,0.3134,0.3202,0.3205,0.3208,0.3273,0,0,0,0,0,0,0.3201,0.3202,0.3208,0.3202,0.3202,0.3221,0.3191,0.3188,0.3194,0.3191,0.3173,0.3169,0.3149,0.3162,0.3161,0.3191,0.3134,0.3199,0.3203,0.3207,0.3269,0.3278,0.3286,0,0,0,0,0,0.3201,0.321,0.3208,0.3209,0.3208,0.3222,0.3222,0.3209,0.3196,0.3205,0.3196,0.317,0.3186,0.3163,0.3162,0.3193,0.3197,0.3202,0.3206,0.3265,0.3276,0.3286,0,0,0,0,0,0,0.3206,0.3208,0.3204,0.3213,0.3223,0.3217,0.3225,0.3219,0.3219,0.3215,0.319,0.3187,0.3216,0.3199,0.3175,0.3227,0.319,0.3194,0.3235,0.3245,0.3254,0.3269,0.3134,0,0,0,0,0,0.3213,0.3219,0.3224,0.3233,0.3239,0.3236,0.3241,0.3236,0.3235,0.3233,0.3223,0.322,0.3235,0.3234,0.3241,0.3263,0.3278,0.3285,0.3294,0.3302,0.3315,0.339,0.3407,0.3223,0.3223,0.3223,0,0,0.3215,0.322,0.3221,0.3235,0.3238,0.3258,0.3235,0.325,0.3267,0.3232,0.325,0.3253,0.3251,0.328,0.3291,0.3266,0.3359,0.3308,0.3314,0.3323,0.3397,0.3415,0.3431,0.3227,0.3226,0.3226,0,0,0.3228,0.3231,0.3243,0.3258,0.3276,0.3279,0.3289,0.3294,0.3297,0.3318,0.3308,0.3335,0.3334,0.3351,0.3356,0.3422,0.341,0.342,0.3467,0.354,0.3555,0.357,0.3595,0.3611,0.3416,0.3416,0.3416,0,0.3232,0.3244,0.325,0.3274,0.3289,0.3293,0.3316,0.3328,0.3338,0.336,0.3332,0.3386,0.3375,0.3437,0.3451,0.3444,0.3466,0.3422,0.3552,0.3566,0.358,0.3602,0.3619,0.342,0.342,0.3419,0.3419,0,0.3255,0.327,0.3283,0.331,0.3334,0.3354,0.3378,0.3405,0.3408,0.3424,0.3485,0.3483,0.3519,0.352,0.3496,0.359,0.3568,0.356,0.3523,0.3602,0.3621,0.3637,0.3425,0.3424,0.3423,0.3422,0,0,0.3235,0.3286,0.3288,0.3305,0.3353,0.3368,0.3425,0.3475,0.3517,0.3538,0.3597,0.3626,0.3639,0.3648,0.364,0.3685,0.3779,0.3657,0.3659,0.3679,0.3915,0.3834,0.3843,0.3798,0.3802,0.3805,0.3884,0,0.3245,0.3285,0.3316,0.3356,0.3376,0.3421,0.3471,0.3526,0.3566,0.3626,0.3664,0.3709,0.3685,0.37,0.3756,0.3781,0.3828,0.3757,0.3839,0.3841,0.3757,0.3862,0.3695,0.3747,0.3899,0.3902,0.3904,0,0.3246,0.3274,0.3312,0.3374,0.3389,0.3422,0.3511,0.3557,0.3662,0.3696,0.3778,0.3806,0.389,0.3843,0.3962,0.3919,0.3928,0.3935,0.3939,0.3854,0.3791,0.3697,0.377,0.3652,0.3929,0.3927,0.3925,0,0.3205,0.3265,0.3291,0.3311,0.3389,0.3426,0.3472,0.3578,0.3638,0.3746,0.3813,0.3911,0.3968,0.4025,0.4055,0.4019,0.4168,0.4121,0.4058,0.405,0.392,0.3895,0.3886,0.4212,0.4212,0.4212,0.4212,0,0.3188,0.3203,0.327,0.328,0.3326,0.3396,0.3467,0.3536,0.3659,0.374,0.3843,0.3925,0.4021,0.4114,0.4113,0.415,0.4231,0.4094,0.4087,0.3934,0.391,0.3808,0.3757,0.4215,0.4214,0.4214,0.4213,0,0.3128,0.3171,0.32,0.3278,0.3302,0.3332,0.3448,0.3505,0.3637,0.3754,0.3795,0.3971,0.4078,0.4163,0.4251,0.4225,0.4129,0.4237,0.4027,0.3994,0.378,0.3738,0.3641,0.3532,0.4173,0.4172,0.4171,0,0.3096,0.3107,0.3176,0.3193,0.3222,0.3283,0.333,0.3464,0.3536,0.3764,0.3814,0.3985,0.4064,0.419,0.4176,0.4192,0.408,0.4035,0.3934,0.3771,0.3722,0.3602,0.3508,0.3779,0.3775,0.3772,0.3769,0,0.3038,0.3064,0.3089,0.3125,0.3161,0.3207,0.3286,0.3351,0.3518,0.362,0.3757,0.3846,0.3998,0.3953,0.4008,0.3987,0.3825,0.3962,0.387,0.3485,0.3281,0.3169,0.3698,0.3739,0.3742,0.3744,0.3746,0.3747,0.2986,0.2985,0.3019,0.304,0.3077,0.3106,0.31,0.3203,0.3284,0.3399,0.3581,0.3626,0.372,0.3763,0.3743,0.359,0.36,0.3452,0.3437,0.3348,0.3172,0.3613,0.3599,0.3601,0.3603,0.3604,0.3606,0,0.2903,0.291,0.2932,0.2935,0.2914,0.2978,0.3039,0.3008,0.3021,0.3168,0.3237,0.3273,0.3252,0.3309,0.3242,0.3098,0.2972,0.2995,0.2793,0.2744,0.3206,0.3117,0.2904,0.2904,0.2904,0.2904,0.2904,0.2904,0.286,0.2831,0.2835,0.2759,0.2756,0.2678,0.2675,0.2658,0.2711,0.2703,0.2701,0.2791,0.2949,0.2955,0.2807,0.2733,0.2518,0.2391,0.2407,0.2733,0.2773,0.2812,0.2717,0.2423,0.2423,0.1822,0.1818,0.1814]},{"header":{"parameterUnit":"m.s-1","parameterCategory":2,"la1":30.2991,"la2":30.254,"lo1":-89.0895,"lo2":-89.0444,"dy":0.0017,"dx":0.0017,"nx":28,"ny":28,"refTime":"2025-11-23T03:00:00:Z","depth":"0","parameterNumber":3,"parameterNumberName":"V-component_of_CURRENTS"},"data":[0,0,0,0,0,0,0,0,0,0,0,0,0,0,0,0,0,0,0,0,0,0,0,0,0,0,0,0,0,0,0,0,0,0,0,0,0,0,0,0,0,0,0,0,0,0,0,0,0,0,0,0,0,0,0,0,0,0,-0.0054,-0.0055,0,-0.0104,-0.0104,-0.0105,-0.0139,-0.0139,-0.0139,-0.0139,-0.0212,-0.0214,-0.0216,0,0,0,0,0,0,0,0,0,0,0,0,0,-0.0048,-0.0047,-0.0054,-0.0055,-0.0055,-0.0103,-0.0104,-0.0105,-0.0139,-0.0139,-0.0139,-0.0139,-0.0211,-0.0214,-0.0216,0,0,0,0,0,0,0,0,0,0,0,0,0,-0.0071,-0.0047,-0.0054,-0.0076,-0.0079,-0.0103,-0.0104,-0.0105,-0.0139,-0.0139,-0.0139,-0.0139,-0.0211,-0.0213,-0.0216,-0.0232,0,0,-0.0225,-0.0226,0,0,0,0,0,0,0,0,-0.0069,-0.0071,-0.0073,-0.0075,-0.0077,-0.0113,-0.0129,-0.0148,-0.0139,-0.0118,-0.0139,-0.0139,-0.018,-0.0185,-0.0197,-0.0235,-0.0238,-0.0225,-0.0227,-0.0228,-0.0229,0,0,0,0,0,0,0,-0.0068,-0.007,-0.0076,-0.0073,-0.0076,-0.0104,-0.0107,-0.0133,-0.015,-0.012,-0.0122,-0.0124,-0.0182,-0.0194,-0.0199,-0.0239,-0.0225,-0.0227,-0.0229,-0.023,-0.0288,-0.0287,0,0,0,0,0,0,-0.0054,-0.0068,-0.0074,-0.0077,-0.0071,-0.0103,-0.0107,-0.0104,-0.0149,-0.0156,-0.0124,-0.0126,-0.0189,-0.0196,-0.0202,-0.0205,-0.0228,-0.0231,-0.0232,-0.0288,-0.0288,-0.0287,0,0,0,0,0,0,-0.0054,-0.0054,-0.0072,-0.0073,-0.0076,-0.0103,-0.0099,-0.0104,-0.0112,-0.0152,-0.0159,-0.0126,-0.019,-0.0198,-0.0216,-0.0209,-0.0232,-0.0234,-0.0288,-0.0288,-0.0287,-0.0223,0,0,0,0,0,0,-0.0053,-0.0054,-0.0049,-0.0071,-0.0076,-0.0076,-0.0099,-0.0105,-0.0113,-0.0115,-0.0155,-0.0163,-0.019,-0.0211,-0.0219,-0.0213,-0.0237,-0.0288,-0.0288,-0.0287,-0.0226,-0.0221,-0.0217,0,0,0,0,0,-0.0053,-0.004,-0.0048,-0.0049,-0.0067,-0.0075,-0.008,-0.0101,-0.0112,-0.011,-0.0137,-0.0161,-0.0215,-0.0213,-0.0222,-0.0217,-0.0288,-0.0288,-0.0288,-0.0228,-0.0222,-0.0217,0,0,0,0,0,0,-0.0035,-0.0043,-0.0052,-0.0043,-0.0054,-0.0079,-0.008,-0.0095,-0.0116,-0.0119,-0.0158,-0.0167,-0.0181,-0.0208,-0.0206,-0.0234,-0.0256,-0.0257,-0.0208,-0.0203,-0.0199,-0.0169,-0.0239,0,0,0,0,0,-0.0028,-0.0021,-0.0035,-0.0028,-0.0031,-0.0055,-0.0062,-0.0075,-0.0095,-0.0104,-0.0131,-0.0162,-0.0188,-0.0201,-0.0228,-0.0241,-0.0256,-0.0245,-0.0241,-0.0237,-0.0219,-0.024,-0.0236,-0.0286,-0.0286,-0.0286,0,0,-0.002,-0.0023,-0.002,-0.0024,-0.0037,-0.0028,-0.006,-0.0063,-0.0056,-0.0109,-0.0111,-0.0147,-0.0188,-0.0202,-0.0212,-0.0223,-0.023,-0.0236,-0.0232,-0.0217,-0.0239,-0.0234,-0.023,-0.0286,-0.0286,-0.0286,0,0,0.0007,-0.0002,0.0016,0.0012,0.0003,-0.0009,-0.0005,-0.0025,-0.0035,-0.0044,-0.008,-0.0105,-0.0145,-0.0169,-0.0187,-0.0175,-0.0206,-0.0191,-0.0144,-0.0165,-0.0161,-0.0157,-0.0165,-0.0162,-0.0189,-0.0189,-0.0189,0,0.0017,0.004,0.0019,0.0036,0.004,0.0007,0.0029,0.0015,-0.0008,-0.0009,-0.0035,-0.0086,-0.0126,-0.0137,-0.0136,-0.0163,-0.0176,-0.016,-0.0158,-0.0154,-0.0152,-0.016,-0.0158,-0.0186,-0.0186,-0.0186,-0.0187,0,0.006,0.0077,0.0087,0.0101,0.0099,0.0112,0.0094,0.0091,0.0071,0.0057,0.0041,-0.0016,-0.0043,-0.0068,-0.01,-0.0101,-0.0116,-0.0148,-0.0166,-0.0142,-0.0154,-0.0153,-0.0181,-0.0182,-0.0183,-0.0184,0,0,0.0095,0.0116,0.0122,0.0144,0.0136,0.0147,0.0153,0.0159,0.0181,0.0135,0.0153,0.009,0.0059,0.0036,-0.0014,-0.0038,-0.0039,-0.008,-0.0082,-0.0076,-0.0073,-0.0084,-0.0085,-0.0073,-0.0072,-0.0072,-0.0086,0,0.014,0.0195,0.0186,0.0236,0.0264,0.0236,0.0252,0.0248,0.0234,0.0242,0.0179,0.0169,0.0098,0.0084,0.005,-0.001,-0.0035,-0.0032,-0.0105,-0.0106,-0.0112,-0.0083,-0.0057,-0.0067,-0.0085,-0.0085,-0.0085,0,0.0193,0.0225,0.028,0.032,0.0329,0.0346,0.0374,0.0388,0.0378,0.0365,0.0336,0.0286,0.0247,0.0176,0.0094,0.01,0.0023,-0.0033,-0.0036,-0.0064,-0.0116,-0.0097,-0.0065,-0.02,-0.0084,-0.0084,-0.0084,0,0.0246,0.0297,0.0347,0.0358,0.0388,0.0405,0.0423,0.0426,0.0462,0.0446,0.0472,0.0396,0.0382,0.0275,0.0152,0.0124,0.0065,0.0007,-0.0075,-0.0076,-0.0075,-0.0077,-0.0171,-0.0054,-0.0054,-0.0054,-0.0054,0,0.0305,0.0349,0.0378,0.0407,0.0479,0.047,0.0542,0.0544,0.057,0.0645,0.0547,0.0587,0.0406,0.0344,0.0205,0.0088,0.0104,-0.0048,-0.0077,-0.0053,-0.0053,-0.0188,-0.0281,-0.0054,-0.0054,-0.0054,-0.0054,0,0.0358,0.0373,0.0441,0.0485,0.0506,0.0559,0.0632,0.0691,0.07,0.0794,0.0795,0.0742,0.0666,0.0487,0.0326,0.0181,-0.0029,-0.0008,0.0039,0.0016,-0.02,-0.029,-0.0415,-0.0467,-0.0097,-0.0097,-0.0098,0,0.0391,0.0429,0.0504,0.0557,0.058,0.0657,0.0719,0.075,0.0828,0.091,0.0973,0.0915,0.0914,0.0671,0.0393,0.0154,-0.0008,-0.0002,-0.0065,-0.0191,-0.0312,-0.0381,-0.0421,-0.0037,-0.0036,-0.0036,-0.0036,0,0.0457,0.0478,0.0536,0.0644,0.0718,0.0816,0.0911,0.0992,0.1061,0.1152,0.1262,0.1265,0.1036,0.0805,0.0448,0.0267,-0.0093,-0.0006,-0.015,-0.0276,-0.0343,-0.0412,-0.0046,-0.0034,-0.0034,-0.0035,-0.0035,-0.0035,0.0509,0.0561,0.0637,0.0744,0.0839,0.0968,0.1063,0.1185,0.1334,0.1488,0.1482,0.1531,0.1172,0.0698,0.0428,-0.0057,-0.0081,-0.021,-0.0306,-0.0362,-0.0421,-0.0043,-0.0063,-0.0063,-0.0063,-0.0064,-0.0064,0,0.0575,0.0635,0.0736,0.0861,0.0981,0.1015,0.119,0.1302,0.1499,0.164,0.1738,0.1601,0.1175,0.0704,0.0047,-0.0292,-0.0418,-0.0481,-0.0575,-0.06,-0.0266,-0.0272,-0.0321,-0.0321,-0.0321,-0.0321,-0.032,-0.032,0.0611,0.0712,0.0761,0.096,0.1053,0.1213,0.1318,0.1495,0.163,0.1807,0.1844,0.1836,0.1461,0.0334,-0.0416,-0.0583,-0.0818,-0.0878,-0.0995,-0.0778,-0.076,-0.0743,-0.0769,-0.0922,-0.0923,-0.1264,-0.1268,-0.1271]}],[{"header":{"parameterUnit":"m.s-1","parameterCategory":2,"la1":30.2991,"la2":30.254,"lo1":-89.0895,"lo2":-89.0444,"dy":0.0017,"dx":0.0017,"nx":28,"ny":28,"refTime":"2025-11-23T03:00:00:Z","depth":"2","parameterNumber":2,"parameterNumberName":"U-component_of_CURRENTS"},"data":[0,0,0,0,0,0,0,0,0,0,0,0,0,0,0,0,0,0,0,0,0,0,0,0,0,0,0,0,0,0,0,0,0,0,0,0,0,0,0,0,0,0,0,0,0,0,0,0,0,0,0,0,0,0,0,0,0,0,0.2716,0.2717,0,0.2723,0.2723,0.2723,0.271,0.2709,0.2709,0.2709,0.2702,0.2702,0.2702,0,0,0,0,0,0,0,0,0,0,0,0,0,0.2698,0.2698,0.2716,0.2717,0.2717,0.2723,0.2723,0.2722,0.271,0.2709,0.2709,0.2709,0.2702,0.2702,0.2702,0,0,0,0,0,0,0,0,0,0,0,0,0,0.2703,0.2698,0.2716,0.2713,0.2713,0.2723,0.2723,0.2722,0.271,0.2709,0.2709,0.2709,0.2702,0.2702,0.2702,0.2708,0,0,0.2702,0.2702,0,0,0,0,0,0,0,0,0.2703,0.2703,0.2713,0.2713,0.2713,0.2717,0.2714,0.2718,0.271,0.2708,0.2709,0.2709,0.2707,0.2707,0.2706,0.2708,0.2707,0.2702,0.2702,0.2702,0.2702,0,0,0,0,0,0,0,0.2702,0.2703,0.2716,0.2714,0.2714,0.2713,0.2713,0.2714,0.2707,0.2708,0.2708,0.2713,0.2707,0.2706,0.2705,0.2707,0.2702,0.2702,0.2702,0.2702,0.2772,0.2774,0,0,0,0,0,0,0.2706,0.2703,0.2716,0.2717,0.271,0.2714,0.2714,0.2714,0.2708,0.2707,0.2713,0.2712,0.2706,0.2705,0.2705,0.2757,0.2702,0.2702,0.2702,0.277,0.2772,0.2774,0,0,0,0,0,0,0.2706,0.2707,0.2716,0.2712,0.2713,0.2715,0.2715,0.2715,0.2726,0.2712,0.271,0.2727,0.2706,0.2705,0.2725,0.2755,0.2702,0.2702,0.2768,0.2771,0.2773,0.2832,0,0,0,0,0,0,0.2705,0.2707,0.2715,0.2712,0.2714,0.2734,0.2716,0.2715,0.273,0.2729,0.2723,0.2721,0.2705,0.2725,0.2725,0.2754,0.2702,0.2765,0.2769,0.2772,0.2828,0.2837,0.2844,0,0,0,0,0,0.2704,0.2713,0.2715,0.2717,0.2722,0.2735,0.2736,0.2734,0.2731,0.2742,0.2742,0.2722,0.2747,0.2726,0.2726,0.2756,0.2764,0.2768,0.2772,0.2824,0.2835,0.2844,0,0,0,0,0,0,0.2708,0.2713,0.2715,0.2724,0.2737,0.2734,0.2745,0.2746,0.2755,0.2757,0.274,0.2739,0.2771,0.2759,0.2736,0.2789,0.2755,0.2759,0.2795,0.2805,0.2813,0.2822,0.2702,0,0,0,0,0,0.2714,0.2722,0.273,0.274,0.2748,0.2751,0.2759,0.2761,0.2766,0.277,0.2767,0.2772,0.2787,0.2791,0.2799,0.2822,0.2831,0.2844,0.2852,0.2859,0.2869,0.2923,0.2937,0.2788,0.2788,0.2788,0,0,0.2717,0.2723,0.2726,0.2742,0.2749,0.2767,0.2755,0.2774,0.2792,0.2768,0.2794,0.2802,0.2802,0.2831,0.2845,0.2824,0.2906,0.2864,0.287,0.2876,0.2929,0.2944,0.2956,0.2791,0.279,0.279,0,0,0.2727,0.2735,0.2747,0.2762,0.2784,0.2788,0.28,0.2812,0.2822,0.2848,0.2844,0.2874,0.2882,0.2896,0.2902,0.2962,0.2951,0.2965,0.3007,0.306,0.3073,0.3084,0.3109,0.3122,0.2964,0.2964,0.2964,0,0.2733,0.2744,0.2754,0.2775,0.279,0.2802,0.2823,0.2838,0.2857,0.288,0.2865,0.2921,0.2916,0.2968,0.2986,0.2981,0.2999,0.2966,0.3071,0.3082,0.3093,0.3115,0.3129,0.2967,0.2967,0.2967,0.2966,0,0.275,0.2766,0.2777,0.2804,0.2828,0.2847,0.2873,0.2903,0.2918,0.2936,0.2996,0.3001,0.3038,0.3042,0.3027,0.3104,0.309,0.3078,0.3044,0.3111,0.3131,0.3144,0.2972,0.2971,0.297,0.2969,0,0,0.2733,0.2778,0.2781,0.2797,0.2844,0.2857,0.2912,0.2959,0.2996,0.303,0.3083,0.3119,0.3137,0.3146,0.3145,0.318,0.326,0.316,0.3161,0.318,0.3367,0.3294,0.3301,0.327,0.3273,0.3275,0.3348,0,0.274,0.2773,0.2802,0.2837,0.2854,0.29,0.2944,0.2997,0.304,0.3094,0.3136,0.318,0.3172,0.3191,0.3237,0.3257,0.3299,0.3241,0.3302,0.3304,0.3228,0.3315,0.304,0.3077,0.3361,0.3363,0.3364,0,0.2738,0.2762,0.2796,0.2848,0.2862,0.2893,0.2972,0.3016,0.3111,0.315,0.3228,0.3253,0.333,0.3298,0.3399,0.3364,0.3379,0.3385,0.3388,0.3309,0.3257,0.3058,0.309,0.3386,0.3384,0.3382,0.3381,0,0.2699,0.2751,0.2775,0.2793,0.2861,0.2897,0.2943,0.3038,0.3091,0.3194,0.3247,0.3337,0.3391,0.3439,0.3474,0.3444,0.3566,0.3525,0.3475,0.3469,0.324,0.3209,0.3601,0.3601,0.3601,0.3601,0.36,0,0.268,0.2695,0.2758,0.2767,0.281,0.2874,0.2939,0.3005,0.3115,0.3182,0.3275,0.3342,0.3433,0.3509,0.3516,0.355,0.3616,0.3505,0.3497,0.3252,0.3223,0.3491,0.3477,0.3603,0.3603,0.3602,0.3602,0,0.2626,0.2666,0.2693,0.2764,0.279,0.2822,0.2932,0.2978,0.3096,0.3192,0.323,0.3381,0.3476,0.3549,0.3629,0.3605,0.3629,0.362,0.3316,0.3272,0.3478,0.3467,0.3567,0.3565,0.3564,0.3563,0.3562,0,0.2597,0.2607,0.2676,0.2693,0.2724,0.2787,0.283,0.2955,0.3011,0.3199,0.3233,0.3383,0.345,0.3562,0.3542,0.3558,0.3628,0.3306,0.3199,0.35,0.3483,0.3473,0.3464,0.2913,0.2907,0.2902,0.2898,0,0.2544,0.2573,0.2594,0.2633,0.2671,0.2714,0.2787,0.2831,0.2975,0.3054,0.3159,0.3234,0.3364,0.3265,0.3318,0.3284,0.3279,0.3203,0.3619,0.2969,0.2891,0.2871,0.2882,0.2853,0.2857,0.2861,0.2863,0.2865,0.25,0.25,0.2532,0.2556,0.2595,0.2613,0.2606,0.2686,0.2746,0.2825,0.2982,0.2994,0.3057,0.2984,0.2907,0.2845,0.3064,0.2914,0.2926,0.2945,0.2861,0.2785,0.271,0.2713,0.2716,0.2719,0.2722,0,0.2427,0.2434,0.2452,0.2457,0.2439,0.2509,0.2543,0.2503,0.2498,0.2612,0.2668,0.2484,0.2446,0.2504,0.2338,0.2349,0.2295,0.2253,0.215,0.2199,0.2241,0.2117,0.1771,0.1767,0.1764,0.1762,0,0,0.2389,0.2361,0.2359,0.2291,0.2297,0.223,0.2217,0.2185,0.2213,0.2177,0.2159,0.235,0.2439,0.2069,0.2035,0.187,0.2013,0.1797,0.2567,0.2496,0.2534,0.264,0.2507,0,0,0,0,0]},{"header":{"parameterUnit":"m.s-1","parameterCategory":2,"la1":30.2991,"la2":30.254,"lo1":-89.0895,"lo2":-89.0444,"dy":0.0017,"dx":0.0017,"nx":28,"ny":28,"refTime":"2025-11-23T03:00:00:Z","depth":"2","parameterNumber":3,"parameterNumberName":"V-component_of_CURRENTS"},"data":[0,0,0,0,0,0,0,0,0,0,0,0,0,0,0,0,0,0,0,0,0,0,0,0,0,0,0,0,0,0,0,0,0,0,0,0,0,0,0,0,0,0,0,0,0,0,0,0,0,0,0,0,0,0,0,0,0,0,0.0176,0.0176,0,0.0133,0.0133,0.0132,0.0099,0.0099,0.0099,0.0099,0.0044,0.0042,0.0041,0,0,0,0,0,0,0,0,0,0,0,0,0,0.0177,0.0177,0.0176,0.0176,0.0175,0.0133,0.0133,0.0132,0.0099,0.0099,0.0099,0.0099,0.0044,0.0042,0.0041,0,0,0,0,0,0,0,0,0,0,0,0,0,0.0158,0.0177,0.0176,0.0155,0.0153,0.0134,0.0133,0.0132,0.01,0.0099,0.0099,0.0099,0.0045,0.0043,0.0041,0.0034,0,0,0.0035,0.0034,0,0,0,0,0,0,0,0,0.0159,0.0158,0.0159,0.0156,0.0154,0.0123,0.0113,0.0099,0.01,0.0118,0.0099,0.0099,0.007,0.0066,0.0057,0.0031,0.0029,0.0035,0.0033,0.0032,0.0032,0,0,0,0,0,0,0,0.0161,0.0159,0.0158,0.0158,0.0155,0.013,0.0127,0.011,0.0095,0.0117,0.0114,0.0112,0.0068,0.0059,0.0055,0.0028,0.0035,0.0033,0.0032,0.0031,-0.0004,-0.0003,0,0,0,0,0,0,0.0172,0.0161,0.0159,0.0157,0.0158,0.013,0.0127,0.0132,0.0095,0.009,0.0112,0.0111,0.0062,0.0057,0.0053,0.0056,0.0032,0.0031,0.003,-0.0004,-0.0004,-0.0003,0,0,0,0,0,0,0.0172,0.0173,0.0161,0.0158,0.0155,0.0131,0.0136,0.0131,0.0123,0.0092,0.0086,0.011,0.0062,0.0056,0.0044,0.0053,0.003,0.0028,-0.0004,-0.0004,-0.0003,0.0054,0,0,0,0,0,0,0.0173,0.0173,0.0179,0.016,0.0156,0.0159,0.0136,0.0131,0.0123,0.012,0.0088,0.0083,0.0061,0.0047,0.0042,0.005,0.0026,-0.0005,-0.0004,-0.0004,0.0052,0.0057,0.006,0,0,0,0,0,0.0173,0.0187,0.0179,0.0179,0.0165,0.0159,0.0155,0.0135,0.0123,0.0126,0.0104,0.0084,0.0047,0.0046,0.004,0.0048,-0.0005,-0.0004,-0.0004,0.005,0.0056,0.006,0,0,0,0,0,0,0.019,0.0185,0.0176,0.0187,0.0177,0.0155,0.0154,0.014,0.0124,0.012,0.0089,0.0082,0.0073,0.0053,0.0053,0.0038,0.0017,0.0016,0.006,0.0065,0.0069,0.009,0.0025,0,0,0,0,0,0.0197,0.0206,0.0193,0.0201,0.0199,0.0176,0.017,0.0158,0.0142,0.0134,0.0112,0.0088,0.007,0.0063,0.0042,0.0037,0.0015,0.0037,0.0041,0.0045,0.0057,0.0031,0.0034,-0.0001,-0.0001,-0.0001,0,0,0.0204,0.0203,0.0207,0.0205,0.0194,0.0202,0.0172,0.0169,0.0176,0.0131,0.0131,0.0101,0.0071,0.0065,0.0059,0.005,0.0042,0.0045,0.0049,0.006,0.0032,0.0036,0.0039,-0.0001,-0.0001,-0.0001,0,0,0.023,0.0224,0.0242,0.0239,0.0231,0.022,0.0223,0.0204,0.0195,0.0189,0.0159,0.014,0.0112,0.0096,0.0083,0.0099,0.0063,0.0087,0.0129,0.0104,0.0107,0.0109,0.0082,0.0082,0.0092,0.0092,0.0092,0,0.0238,0.0263,0.0245,0.0262,0.0266,0.0234,0.0255,0.0243,0.0223,0.0223,0.0198,0.016,0.0129,0.0129,0.013,0.011,0.0088,0.0114,0.011,0.0112,0.0113,0.0085,0.0084,0.0095,0.0095,0.0094,0.0094,0,0.0281,0.0298,0.0308,0.0322,0.0322,0.0334,0.0319,0.0317,0.0297,0.0285,0.0273,0.0226,0.0207,0.0188,0.0163,0.0161,0.0139,0.0117,0.0101,0.0121,0.009,0.0087,0.0099,0.0098,0.0097,0.0096,0,0,0.031,0.0335,0.0339,0.0362,0.0357,0.0368,0.0376,0.0383,0.0404,0.0361,0.0377,0.0329,0.0299,0.0283,0.0242,0.0216,0.0197,0.0176,0.0173,0.0156,0.0139,0.0117,0.0112,0.0173,0.0173,0.0173,0.0112,0,0.0351,0.0404,0.0399,0.0448,0.0475,0.0453,0.0471,0.0469,0.0456,0.0461,0.0405,0.0399,0.0337,0.0327,0.0291,0.0226,0.0194,0.0216,0.0117,0.0114,0.0097,0.011,0.013,0.0078,0.011,0.0109,0.0109,0,0.0398,0.0431,0.0485,0.0527,0.0537,0.0555,0.0584,0.0601,0.0591,0.0579,0.0553,0.0505,0.0463,0.0402,0.0302,0.0318,0.0236,0.0176,0.0172,0.0133,0.0088,0.0063,0.0072,0.0105,0.0105,0.0105,0.0106,0,0.0443,0.0494,0.0543,0.0556,0.0591,0.061,0.063,0.0636,0.0671,0.0657,0.0669,0.06,0.0578,0.0466,0.0331,0.0317,0.0216,0.018,0.0082,0.0079,0.0069,0.0066,0.0107,0.0107,0.0107,0.0107,0.0108,0,0.0495,0.0537,0.0571,0.0599,0.0669,0.0669,0.0739,0.0745,0.077,0.0826,0.0739,0.0757,0.0593,0.0508,0.0368,0.0225,0.0241,0.0097,0.0066,0.0089,0.0088,0.0089,0.0088,0.0105,0.0106,0.0106,0.0106,0,0.0539,0.0556,0.0623,0.0671,0.0692,0.0745,0.082,0.0877,0.0882,0.0948,0.0946,0.0882,0.0774,0.0598,0.0425,0.029,0.0141,0.0081,0.0118,0.0092,0.001,0.0012,-0.0029,-0.003,-0.0031,-0.0032,-0.0033,0,0.0567,0.0604,0.068,0.0728,0.0752,0.083,0.0892,0.093,0.0998,0.1033,0.1074,0.0986,0.0944,0.0677,0.0423,0.0177,0.0141,0.0029,0.0002,0.0024,-0.0003,0.0001,0.0005,0.0007,0.0007,0.0007,0.0006,0,0.0624,0.0645,0.0701,0.08,0.0871,0.0967,0.1056,0.1125,0.118,0.123,0.1276,0.124,0.099,0.0748,0.0404,0.0237,0.0067,0.0015,0.0035,0.004,0.0053,0.0029,0.0032,0.0004,0.0004,0.0004,0.0004,0.0005,0.0666,0.0714,0.0784,0.0882,0.0972,0.1087,0.1172,0.1269,0.1379,0.1453,0.1422,0.137,0.1095,0.0659,0.0361,0.0045,0.0064,-0.0053,-0.005,-0.0047,-0.003,-0.002,-0.008,-0.008,-0.008,-0.008,-0.008,0,0.0719,0.0772,0.0863,0.0976,0.1082,0.1121,0.1273,0.1356,0.1484,0.154,0.1567,0.1301,0.1026,0.0699,0.0233,-0.0038,-0.0058,-0.013,-0.0093,-0.0088,-0.0084,-0.0068,-0.0129,-0.013,-0.0131,-0.0132,0,0,0.0746,0.0834,0.0878,0.1046,0.113,0.1271,0.1359,0.1474,0.1546,0.1597,0.1566,0.1508,0.1118,0.0774,0.0403,0.0133,0.0083,0.0078,0.0148,0.024,0.0247,-0.0007,0.0026,0,0,0,0,0]}],[{"header":{"parameterUnit":"m.s-1","parameterCategory":2,"la1":30.2991,"la2":30.254,"lo1":-89.0895,"lo2":-89.0444,"dy":0.0017,"dx":0.0017,"nx":28,"ny":28,"refTime":"2025-11-23T03:00:00:Z","depth":"4","parameterNumber":2,"parameterNumberName":"U-component_of_CURRENTS"},"data":[0,0,0,0,0,0,0,0,0,0,0,0,0,0,0,0,0,0,0,0,0,0,0,0,0,0,0,0,0,0,0,0,0,0,0,0,0,0,0,0,0,0,0,0,0,0,0,0,0,0,0,0,0,0,0,0,0,0,0.173,0.1731,0,0.178,0.178,0.178,0.1827,0.1828,0.1828,0.1829,0.1887,0.1887,0.1888,0,0,0,0,0,0,0,0,0,0,0,0,0,0.167,0.1671,0.173,0.1731,0.1732,0.1779,0.178,0.178,0.1827,0.1828,0.1829,0.183,0.1886,0.1887,0.1888,0,0,0,0,0,0,0,0,0,0,0,0,0,0.1703,0.1671,0.173,0.1762,0.1766,0.1779,0.178,0.1781,0.1827,0.1828,0.1829,0.183,0.1886,0.1887,0.1888,0.1873,0,0,0.1892,0.1893,0,0,0,0,0,0,0,0,0.1701,0.1705,0.1757,0.176,0.1764,0.18,0.178,0.1812,0.1826,0.1801,0.1829,0.1831,0.1859,0.1862,0.1866,0.1875,0.1878,0.1892,0.1893,0.1893,0.1894,0,0,0,0,0,0,0,0.1699,0.1703,0.1748,0.1757,0.1762,0.1772,0.1778,0.1786,0.1821,0.1804,0.1808,0.1816,0.1861,0.1865,0.1868,0.1879,0.1892,0.1893,0.1894,0.1894,0.1996,0.1998,0,0,0,0,0,0,0.1696,0.1701,0.1746,0.1749,0.1737,0.1772,0.1779,0.1786,0.1821,0.1828,0.1815,0.1818,0.1862,0.1866,0.187,0.1955,0.1893,0.1895,0.1895,0.1994,0.1996,0.1998,0,0,0,0,0,0,0.1695,0.1699,0.1744,0.1728,0.1735,0.1773,0.178,0.1786,0.1829,0.183,0.1837,0.1857,0.1863,0.1868,0.1916,0.1953,0.1895,0.1896,0.1992,0.1995,0.1997,0.2059,0,0,0,0,0,0,0.1693,0.1698,0.1721,0.1728,0.1736,0.1777,0.1779,0.1786,0.1831,0.1837,0.1867,0.1872,0.1864,0.1914,0.1917,0.1954,0.1897,0.1989,0.1993,0.1996,0.2054,0.2064,0.2071,0,0,0,0,0,0.169,0.1708,0.1722,0.1729,0.1759,0.1779,0.1784,0.1813,0.1833,0.1856,0.1883,0.1873,0.194,0.1917,0.192,0.1958,0.1987,0.1992,0.1996,0.205,0.2062,0.2071,0,0,0,0,0,0,0.1695,0.1715,0.173,0.1755,0.178,0.1788,0.1818,0.1835,0.1874,0.1893,0.1893,0.1899,0.1956,0.195,0.1925,0.2,0.1964,0.1969,0.2004,0.2015,0.2023,0.2025,0.1898,0,0,0,0,0,0.1706,0.1728,0.1745,0.1771,0.1787,0.1811,0.1831,0.1851,0.1876,0.1896,0.1918,0.1945,0.1969,0.1988,0.2005,0.2043,0.2046,0.2072,0.208,0.2088,0.2093,0.2138,0.2151,0.2013,0.2013,0.2013,0,0,0.1716,0.1731,0.1746,0.1776,0.1799,0.1823,0.1827,0.1868,0.1898,0.1895,0.1958,0.1978,0.1987,0.2032,0.2057,0.2037,0.213,0.2093,0.2099,0.2101,0.2144,0.2157,0.2169,0.2016,0.2015,0.2015,0,0,0.1733,0.1763,0.1785,0.1807,0.185,0.1861,0.1882,0.1916,0.1947,0.1998,0.2009,0.2056,0.209,0.2106,0.2115,0.2182,0.2175,0.2195,0.2239,0.2283,0.2294,0.2304,0.2327,0.2338,0.2198,0.2198,0.2198,0,0.1751,0.1773,0.1796,0.1822,0.1849,0.1882,0.1912,0.1941,0.1991,0.2024,0.2032,0.2113,0.2122,0.2175,0.22,0.2201,0.222,0.2196,0.2293,0.2303,0.2312,0.2333,0.2345,0.2201,0.2201,0.2201,0.22,0,0.1768,0.1804,0.1822,0.1863,0.1896,0.1929,0.1967,0.2017,0.2062,0.209,0.2172,0.2193,0.2243,0.2255,0.2247,0.2322,0.2313,0.2298,0.2263,0.233,0.2348,0.2359,0.2206,0.2205,0.2204,0.2203,0,0,0.1755,0.1821,0.1832,0.1859,0.1923,0.1942,0.2012,0.207,0.2121,0.2184,0.2248,0.2302,0.2333,0.2346,0.2354,0.2388,0.2467,0.2378,0.2379,0.2394,0.2562,0.2395,0.2391,0.2477,0.2479,0.2481,0.2547,0,0.1765,0.1813,0.185,0.1905,0.1931,0.1992,0.2045,0.2112,0.2173,0.2243,0.2296,0.2358,0.2361,0.2396,0.2438,0.2461,0.2501,0.245,0.25,0.2502,0.234,0.24,0.2489,0.2556,0.2558,0.256,0.2561,0,0.1761,0.1796,0.1851,0.1923,0.1943,0.199,0.2087,0.2141,0.2246,0.23,0.2387,0.2424,0.2505,0.2486,0.2581,0.2554,0.2572,0.2579,0.2581,0.241,0.2356,0.2477,0.2582,0.258,0.2579,0.2577,0.2576,0,0.1715,0.1791,0.1837,0.1862,0.1951,0.2006,0.2065,0.217,0.223,0.2349,0.2408,0.2502,0.2565,0.2611,0.265,0.2629,0.2732,0.2698,0.2565,0.2554,0.2656,0.2644,0.2764,0.2764,0.2764,0.2764,0.2763,0,0.1685,0.1724,0.1826,0.1848,0.1914,0.1991,0.2079,0.2154,0.2271,0.2337,0.2442,0.25,0.2604,0.2671,0.2684,0.2662,0.2772,0.258,0.2563,0.268,0.2671,0.2663,0.2651,0.2766,0.2765,0.2765,0.2765,0,0.162,0.1688,0.1744,0.1853,0.1895,0.1947,0.2085,0.2136,0.2265,0.2357,0.2401,0.2538,0.2613,0.2687,0.2761,0.269,0.2687,0.2654,0.2784,0.2772,0.2468,0.2459,0.2493,0.2488,0.2483,0.248,0.2477,0,0.1585,0.1611,0.1738,0.1777,0.1835,0.1929,0.1986,0.2124,0.2176,0.2353,0.2375,0.2508,0.2577,0.2552,0.2642,0.2652,0.2624,0.26,0.2517,0.2462,0.2443,0.244,0.2437,0.247,0.2468,0.2467,0.2466,0,0.1517,0.1583,0.1631,0.1714,0.1785,0.1847,0.1941,0.1966,0.2111,0.2251,0.2289,0.2323,0.2402,0.2445,0.248,0.2483,0.2595,0.2552,0.256,0.2482,0.2434,0.2419,0.2421,0.2451,0.2453,0.2454,0.2455,0,0.1475,0.1491,0.1569,0.1626,0.1708,0.1729,0.1795,0.1845,0.1915,0.2095,0.2108,0.2244,0.2378,0.236,0.2393,0.2382,0.2333,0.2238,0.2262,0.228,0.2178,0.2084,0.1983,0,0,0,0,0,0.1418,0.1422,0.1469,0.1514,0.1588,0.1635,0.1741,0.1806,0.1946,0.1916,0.2003,0.206,0.2098,0.2177,0.212,0.2301,0.2348,0.2224,0.2252,0.2365,0.2383,0.2281,0,0,0,0,0,0,0.1377,0.142,0.1427,0.1408,0.1418,0.1478,0.1539,0.1636,0.1624,0.1778,0.1813,0.193,0.2006,0.211,0.2081,0.2103,0.2074,0.2315,0.231,0.2355,0.2371,0.2385,0.2287,0,0,0,0,0]},{"header":{"parameterUnit":"m.s-1","parameterCategory":2,"la1":30.2991,"la2":30.254,"lo1":-89.0895,"lo2":-89.0444,"dy":0.0017,"dx":0.0017,"nx":28,"ny":28,"refTime":"2025-11-23T03:00:00:Z","depth":"4","parameterNumber":3,"parameterNumberName":"V-component_of_CURRENTS"},"data":[0,0,0,0,0,0,0,0,0,0,0,0,0,0,0,0,0,0,0,0,0,0,0,0,0,0,0,0,0,0,0,0,0,0,0,0,0,0,0,0,0,0,0,0,0,0,0,0,0,0,0,0,0,0,0,0,0,0,0.0188,0.0188,0,0.0163,0.0163,0.0163,0.0146,0.0146,0.0146,0.0146,0.0114,0.0113,0.0113,0,0,0,0,0,0,0,0,0,0,0,0,0,0.0183,0.0184,0.0188,0.0188,0.0187,0.0163,0.0163,0.0163,0.0146,0.0146,0.0146,0.0146,0.0114,0.0113,0.0112,0,0,0,0,0,0,0,0,0,0,0,0,0,0.0174,0.0184,0.0188,0.0177,0.0175,0.0163,0.0163,0.0162,0.0146,0.0146,0.0146,0.0146,0.0115,0.0114,0.0112,0.0107,0,0,0.0109,0.0108,0,0,0,0,0,0,0,0,0.0175,0.0174,0.0179,0.0177,0.0176,0.0158,0.015,0.0144,0.0146,0.0156,0.0146,0.0145,0.0129,0.0126,0.0121,0.0106,0.0104,0.0109,0.0108,0.0107,0.0107,0,0,0,0,0,0,0,0.0176,0.0175,0.0177,0.0178,0.0177,0.016,0.0159,0.0148,0.0143,0.0155,0.0154,0.0153,0.0128,0.0122,0.012,0.0104,0.0109,0.0108,0.0107,0.0106,0.009,0.009,0,0,0,0,0,0,0.0182,0.0176,0.0178,0.0177,0.0176,0.0161,0.0159,0.0163,0.0143,0.014,0.0153,0.0152,0.0124,0.0122,0.0119,0.0128,0.0107,0.0106,0.0106,0.009,0.009,0.0091,0,0,0,0,0,0,0.0182,0.0183,0.0179,0.0176,0.0174,0.0161,0.0166,0.0163,0.0161,0.0141,0.0138,0.0155,0.0124,0.0121,0.0117,0.0126,0.0106,0.0105,0.009,0.009,0.009,0.0135,0,0,0,0,0,0,0.0182,0.0183,0.0189,0.0177,0.0175,0.018,0.0166,0.0163,0.0161,0.0159,0.0142,0.0138,0.0124,0.0119,0.0116,0.0124,0.0104,0.0089,0.009,0.009,0.0133,0.0136,0.014,0,0,0,0,0,0.0182,0.0194,0.019,0.019,0.0184,0.018,0.0178,0.0167,0.0161,0.0165,0.0153,0.0139,0.012,0.0118,0.0115,0.0122,0.0089,0.009,0.009,0.0131,0.0136,0.0139,0,0,0,0,0,0,0.0195,0.0193,0.0188,0.0198,0.0193,0.0178,0.018,0.0172,0.0165,0.0164,0.0144,0.014,0.0138,0.0124,0.0123,0.0118,0.0101,0.0101,0.0134,0.0138,0.0141,0.0155,0.0103,0,0,0,0,0,0.0201,0.021,0.0201,0.021,0.0208,0.0195,0.0192,0.0186,0.0177,0.0173,0.016,0.0147,0.0137,0.0134,0.0121,0.0121,0.0098,0.0122,0.0126,0.0129,0.0138,0.011,0.0111,0.0093,0.0093,0.0093,0,0,0.0207,0.0207,0.0212,0.0213,0.0206,0.0214,0.0193,0.0194,0.0202,0.0171,0.0177,0.0158,0.0139,0.0138,0.0136,0.0129,0.0121,0.013,0.0133,0.014,0.011,0.0112,0.0114,0.0093,0.0093,0.0093,0,0,0.0226,0.0225,0.024,0.024,0.0237,0.023,0.0233,0.0222,0.0219,0.022,0.02,0.0189,0.0174,0.0163,0.0155,0.017,0.0138,0.0164,0.0195,0.0168,0.0169,0.017,0.0139,0.0137,0.0167,0.0168,0.0168,0,0.0234,0.0253,0.0242,0.0256,0.0262,0.0241,0.0259,0.0253,0.0242,0.0245,0.0229,0.0207,0.0187,0.0189,0.0192,0.0179,0.0156,0.0183,0.0173,0.0173,0.0174,0.0141,0.0138,0.017,0.0169,0.0169,0.0169,0,0.0264,0.028,0.0289,0.0303,0.0306,0.0317,0.0309,0.0311,0.0301,0.0294,0.029,0.0258,0.0248,0.0235,0.0219,0.0214,0.0194,0.0179,0.0164,0.0178,0.0143,0.0139,0.0173,0.0172,0.0171,0.0171,0,0,0.0283,0.0307,0.0311,0.0331,0.0333,0.0343,0.0354,0.0363,0.038,0.0354,0.0366,0.0338,0.0317,0.0307,0.0278,0.0253,0.0227,0.0221,0.0218,0.0193,0.0162,0.0141,0.0134,0.0208,0.0208,0.0208,0.0135,0,0.0311,0.0354,0.0355,0.0396,0.0418,0.0408,0.0425,0.0428,0.0422,0.0426,0.0387,0.0387,0.0346,0.0342,0.0309,0.0251,0.022,0.0248,0.015,0.0147,0.0129,0.0131,0.0207,0.0132,0.0131,0.0131,0.013,0,0.0343,0.037,0.0416,0.0456,0.0465,0.0485,0.0513,0.0529,0.0524,0.0517,0.05,0.0466,0.0431,0.0388,0.0296,0.0316,0.0246,0.0193,0.0188,0.0153,0.0119,0.0115,0.0123,0.0123,0.0124,0.0124,0.0125,0,0.037,0.0415,0.0458,0.047,0.0505,0.0527,0.0549,0.0559,0.0587,0.0579,0.0586,0.0532,0.0511,0.0418,0.0305,0.0301,0.0192,0.0172,0.0086,0.0083,0.0104,0.0104,0.0104,0.0104,0.0104,0.0104,0.0104,0,0.04,0.0437,0.0478,0.0502,0.0563,0.0572,0.0634,0.0642,0.0663,0.0699,0.0642,0.0643,0.0518,0.0437,0.0324,0.0194,0.0205,0.0093,0.0065,0.0123,0.0126,0.0101,0.0101,0.0101,0.0102,0.0103,0.0103,0,0.0421,0.0445,0.0502,0.0554,0.0578,0.0624,0.0698,0.0742,0.0751,0.0789,0.0789,0.073,0.0625,0.0485,0.0331,0.023,0.01,0.0049,0.0122,0.0099,0.0003,0.0006,-0.005,-0.0052,-0.0053,-0.0054,-0.0054,0,0.0435,0.0466,0.0544,0.0587,0.0615,0.0688,0.0742,0.0783,0.0828,0.0841,0.0858,0.0776,0.0711,0.0485,0.0331,0.011,0.0075,0.0001,0.0,0.0009,-0.0012,-0.0007,-0.0002,-0.0056,-0.0057,-0.0057,-0.0057,0,0.0462,0.0491,0.0539,0.0628,0.0695,0.0776,0.085,0.0888,0.0929,0.0938,0.0912,0.0793,0.0672,0.0491,0.0317,0.0158,0.0046,-0.0011,-0.001,-0.0012,0.0001,-0.0018,-0.0011,-0.0061,-0.006,-0.006,-0.006,0,0.0484,0.052,0.0585,0.0665,0.0754,0.0832,0.0873,0.0921,0.0964,0.0967,0.0957,0.0821,0.075,0.0515,0.0357,0.0195,0.0151,0.0089,0.0084,0.0087,0.0141,0.0179,0.0151,0,0,0,0,0,0.0502,0.0543,0.0617,0.0703,0.0793,0.0845,0.0933,0.0965,0.0999,0.0987,0.0973,0.0856,0.0624,0.0535,0.037,0.0323,0.0114,0.0122,0.0039,-0.0082,-0.0078,-0.0039,0,0,0,0,0,0,0.0512,0.0579,0.0614,0.0722,0.0785,0.0886,0.0943,0.0967,0.0962,0.0967,0.0856,0.0799,0.0585,0.0717,0.0363,0.0315,0.0235,0.002,0.0016,-0.0085,-0.0081,-0.0077,-0.0036,0,0,0,0,0]}]]